FW8079 Weather Reports


time (UTC)temp
F
wind
direction
speed
knots
gust
knots
rain 1hr
in
rain 24hr
in
rain mn
in
humidity
%
barometer
mb
20260504120208 56 82 2.6 2.6 0.00 0.00 0.00 60 1012.0
20260504110635 53 28 0.0 3.5 0.00 0.00 0.00 63 1012.5
20260504110131 53 269 0.0 2.6 0.00 0.00 0.00 63 1012.4
20260504100551 53 141 1.7 5.2 0.00 0.00 0.00 68 1012.5
20260504081945 54 11 0.0 2.6 0.00 0.00 0.00 64 1012.6
20260504081442 54 20 0.9 2.6 0.00 0.00 0.00 64 1012.5
20260504080938 54 94 0.9 1.7 0.00 0.00 0.00 63 1012.5
20260504080435 54 345 0.9 1.7 0.00 0.00 0.00 64 1012.7
20260504070403 52 331 0.0 1.7 0.00 0.00 0.00 65 1012.9
20260504050749 48 66 0.0 1.7 0.00 0.00 0.00 73 1013.0
20260504050247 48 359 0.9 0.9 0.00 0.00 0.00 73 1012.9
20260504045739 48 32 0.0 0.9 0.00 0.00 0.00 73 1012.8
20260504045233 48 55 0.0 0.9 0.00 0.00 0.00 73 1012.8
20260504044731 48 26 0.0 0.9 0.00 0.00 0.00 73 1013.1
20260504044228 48 56 0.9 0.9 0.00 0.00 0.00 72 1013.0
20260504043725 48 99 0.0 1.7 0.00 0.00 0.00 72 1012.9
20260504043222 48 46 0.0 1.7 0.00 0.00 0.00 71 1012.8
20260504042720 48 70 0.0 1.7 0.00 0.00 0.00 70 1012.8
20260504042216 47 81 0.9 1.7 0.00 0.00 0.00 72 1012.9
20260504041712 46 52 0.0 0.9 0.00 0.00 0.00 74 1012.8
20260504041208 46 52 0.0 0.9 0.00 0.00 0.00 75 1012.9
20260504040705 46 39 0.0 0.9 0.00 0.00 0.00 74 1012.9
20260504040202 46 66 0.0 1.7 0.00 0.00 0.00 75 1013.0
20260504035658 46 32 0.0 0.9 0.00 0.00 0.00 76 1012.8
20260504035156 46 89 0.0 0.9 0.00 0.00 0.00 77 1013.0
20260504034653 46 70 1.7 1.7 0.00 0.00 0.00 78 1012.7
20260504034150 46 100 0.0 1.7 0.00 0.00 0.00 79 1012.7
20260504033648 45 101 0.0 1.7 0.00 0.00 0.00 80 1012.7
20260504033145 45 44 0.0 1.7 0.00 0.00 0.00 79 1012.5
20260504032641 45 49 0.9 0.9 0.00 0.00 0.00 80 1012.8
20260504032139 46 1 0.0 0.9 0.00 0.00 0.00 80 1012.8
20260504031636 46 32 0.0 1.7 0.00 0.00 0.00 81 1012.5
20260504031132 46 32 0.0 0.9 0.00 0.00 0.00 82 1012.4
20260504030629 46 345 0.0 0.9 0.00 0.00 0.00 82 1012.6
20260504030125 47 22 0.0 0.9 0.00 0.00 0.00 81 1012.5
20260504025622 47 47 0.0 0.9 0.00 0.00 0.00 80 1012.6
20260504025119 48 55 0.0 0.9 0.00 0.00 0.00 80 1012.4
20260504024616 47 57 0.0 0.9 0.00 0.00 0.00 79 1012.6
20260504024113 48 323 0.9 0.9 0.00 0.00 0.00 79 1012.4
20260504023609 48 113 0.0 0.9 0.00 0.00 0.00 77 1012.5
20260504023105 48 44 0.0 0.9 0.00 0.00 0.00 75 1012.4
20260504022602 48 57 0.0 0.9 0.00 0.00 0.00 74 1012.5
20260504022058 48 335 0.0 0.9 0.00 0.00 0.00 77 1012.5
20260504021556 48 299 0.9 1.7 0.00 0.00 0.00 75 1012.4
20260504021052 48 32 0.0 0.9 0.00 0.00 0.00 76 1012.4
20260504020549 48 54 0.0 0.9 0.00 0.00 0.00 75 1012.4
20260504020046 49 352 0.0 0.9 0.00 0.00 0.00 75 1012.4
20260504015542 49 126 0.0 0.9 0.00 0.00 0.00 74 1012.5
20260504015038 49 113 0.0 0.9 0.00 0.00 0.00 75 1012.3
20260504014535 49 317 0.9 0.9 0.00 0.00 0.00 74 1012.3
20260504014032 49 38 0.0 0.9 0.00 0.00 0.00 73 1012.4
20260504013529 49 208 0.0 0.9 0.00 0.00 0.00 72 1012.2
20260504013026 49 41 0.9 0.9 0.00 0.00 0.00 68 1012.2
20260504012524 50 339 0.0 0.9 0.00 0.00 0.00 69 1012.0
20260504012022 50 28 0.9 0.9 0.00 0.00 0.00 67 1012.1
20260504011518 50 32 0.0 0.9 0.00 0.00 0.00 67 1011.9
20260504011014 51 345 0.0 0.9 0.00 0.00 0.00 66 1011.9
20260504010510 51 42 0.0 0.9 0.00 0.00 0.00 63 1012.0
20260504010006 51 113 0.0 0.9 0.00 0.00 0.00 64 1011.9
20260504005503 51 58 0.0 0.9 0.00 0.00 0.00 62 1011.9
20260504005000 52 38 0.9 0.9 0.00 0.00 0.00 61 1011.9
20260504004458 52 56 0.9 0.9 0.00 0.00 0.00 60 1012.1
20260504003955 53 146 0.0 0.9 0.00 0.00 0.00 59 1011.9
20260504003451 53 74 0.9 1.7 0.00 0.00 0.00 56 1011.5
20260504002948 53 52 0.9 0.9 0.00 0.00 0.00 55 1011.7
20260504002445 54 68 0.9 1.7 0.00 0.00 0.00 52 1011.9
20260504001942 54 40 0.0 1.7 0.00 0.00 0.00 50 1011.6
20260504001439 55 41 0.9 1.7 0.00 0.00 0.00 49 1011.4
20260504000936 55 35 0.9 1.7 0.00 0.00 0.00 48 1011.5
20260504000433 56 56 0.9 1.7 0.00 0.00 0.00 46 1011.6
20260503235930 57 66 0.0 1.7 0.00 0.00 0.00 45 1011.6
20260503235428 57 49 0.9 1.7 0.00 0.00 0.00 43 1011.3
20260503234925 58 41 0.0 1.7 0.00 0.00 0.00 43 1011.6
20260503234423 58 23 0.0 1.7 0.00 0.00 0.00 42 1011.4
20260503233921 59 37 0.0 1.7 0.00 0.00 0.00 41 1011.1
20260503233417 59 55 0.0 0.9 0.00 0.00 0.00 39 1011.2
20260503232913 60 217 0.0 1.7 0.00 0.00 0.00 39 1011.2
20260503232410 60 45 0.9 1.7 0.00 0.00 0.00 38 1011.0
20260503231908 61 348 0.0 2.6 0.00 0.00 0.00 36 1011.3
20260503231405 62 293 0.9 2.6 0.00 0.00 0.00 37 1011.1
20260503230902 62 5 0.9 2.6 0.00 0.00 0.00 35 1011.1
20260503230358 61 305 3.5 4.3 0.00 0.00 0.00 34 1011.2
20260503225856 62 16 1.7 5.2 0.00 0.00 0.00 36 1011.3
20260503225352 63 330 1.7 7.8 0.00 0.00 0.00 34 1011.0
20260503224848 62 304 4.3 9.6 0.00 0.00 0.00 33 1011.2
20260503224345 62 299 4.3 7.8 0.00 0.00 0.00 33 1011.1
20260503223843 62 313 0.9 6.1 0.00 0.00 0.00 36 1011.0
20260503223341 62 323 2.6 5.2 0.00 0.00 0.00 34 1011.1
20260503222836 62 309 1.7 5.2 0.00 0.00 0.00 34 1010.9
20260503222335 62 302 1.7 7.8 0.00 0.00 0.00 36 1011.3
20260503221832 62 314 1.7 13.0 0.00 0.00 0.00 34 1011.3
20260503221331 62 343 1.7 7.8 0.00 0.00 0.00 35 1011.1
20260503220826 62 353 1.7 4.3 0.00 0.00 0.00 37 1011.2
20260503220324 62 311 0.9 3.5 0.00 0.00 0.00 38 1011.4
20260503215820 62 316 4.3 7.8 0.00 0.00 0.00 35 1011.1
20260503215318 62 310 5.2 9.6 0.00 0.00 0.00 35 1011.1
20260503214815 62 307 5.2 7.8 0.00 0.00 0.00 37 1011.2
20260503214312 61 305 6.1 13.0 0.00 0.00 0.00 37 1011.2
20260503213810 62 297 4.3 12.2 0.00 0.00 0.00 35 1011.4
20260503213307 62 302 4.3 5.2 0.00 0.00 0.00 35 1011.2
20260503212804 62 292 3.5 6.1 0.00 0.00 0.00 37 1011.3
20260503212304 62 290 1.7 3.5 0.00 0.00 0.00 36 1011.2
20260503211759 62 323 1.7 7.8 0.00 0.00 0.00 36 1011.2
20260503211255 62 318 3.5 4.3 0.00 0.00 0.00 37 1011.1
20260503210755 62 319 5.2 5.2 0.00 0.00 0.00 37 1011.5
20260503210253 61 303 7.0 7.8 0.00 0.00 0.00 36 1011.1
20260503205748 61 0 3.5 6.1 0.00 0.00 0.00 39 1011.4
20260503205245 61 0 0.9 6.1 0.00 0.00 0.00 36 1011.1
20260503204741 61 329 0.9 7.0 0.00 0.00 0.00 36 1011.2
20260503204239 61 294 5.2 7.8 0.00 0.00 0.00 37 1011.2
20260503203736 61 339 3.5 8.7 0.00 0.00 0.00 38 1011.4
20260503203234 61 308 4.3 7.8 0.00 0.00 0.00 38 1011.5
20260503202731 61 165 2.6 7.8 0.00 0.00 0.00 36 1011.5
20260503202229 62 309 5.2 5.2 0.00 0.00 0.00 39 1011.3
20260503201726 61 7 1.7 7.8 0.00 0.00 0.00 38 1011.8
20260503201224 60 68 1.7 5.2 0.00 0.00 0.00 37 1011.6
20260503200720 60 351 2.6 12.2 0.00 0.00 0.00 38 1011.8
20260503200216 62 142 0.9 6.1 0.00 0.00 0.00 37 1011.8
20260503195713 61 6 2.6 8.7 0.00 0.00 0.00 39 1012.0
20260503195210 60 300 5.2 10.4 0.00 0.00 0.00 38 1012.0
20260503194707 60 300 2.6 5.2 0.00 0.00 0.00 38 1011.9
20260503194203 60 289 3.5 6.1 0.00 0.00 0.00 41 1012.0
20260503193700 61 292 3.5 9.6 0.00 0.00 0.00 37 1012.1
20260503193155 61 315 2.6 3.5 0.00 0.00 0.00 38 1012.1
20260503192651 60 266 2.6 5.2 0.00 0.00 0.00 39 1012.4
20260503192147 60 312 3.5 8.7 0.00 0.00 0.00 41 1012.3
20260503191644 60 355 1.7 7.8 0.00 0.00 0.00 40 1012.3
20260503191141 60 3 5.2 8.7 0.00 0.00 0.00 43 1012.2
20260503190638 61 299 6.1 9.6 0.00 0.00 0.00 36 1012.6
20260503190134 59 325 2.6 14.8 0.00 0.00 0.00 38 1012.7
20260503185631 61 22 0.9 6.1 0.00 0.00 0.00 38 1012.2
20260503185126 59 307 2.6 7.8 0.00 0.00 0.00 39 1012.4
20260503184622 59 114 0.0 10.4 0.00 0.00 0.00 41 1012.9
20260503184118 59 294 6.1 9.6 0.00 0.00 0.00 39 1012.9
20260503183615 61 292 0.9 3.5 0.00 0.00 0.00 39 1012.6
20260503183112 59 351 1.7 5.2 0.00 0.00 0.00 40 1012.7
20260503182611 59 297 8.7 11.3 0.00 0.00 0.00 37 1012.8
20260503182109 58 294 6.1 10.4 0.00 0.00 0.00 40 1012.9
20260503181605 58 341 2.6 9.6 0.00 0.00 0.00 40 1012.8
20260503181101 57 309 7.8 10.4 0.00 0.00 0.00 39 1012.9
20260503180559 59 307 6.1 10.4 0.00 0.00 0.00 39 1012.9
20260503180056 58 305 4.3 13.0 0.00 0.00 0.00 40 1012.8
20260503175553 58 320 3.5 5.2 0.00 0.00 0.00 39 1012.7
20260503175050 57 299 7.0 11.3 0.00 0.00 0.00 40 1013.0
20260503174547 59 309 0.9 3.5 0.00 0.00 0.00 40 1012.8
20260503174044 58 305 6.1 7.8 0.00 0.00 0.00 44 1013.0
20260503173539 59 19 1.7 7.0 0.00 0.00 0.00 42 1013.2
20260503173035 58 112 2.6 5.2 0.00 0.00 0.00 44 1013.2
20260503172533 57 55 9.6 11.3 0.00 0.00 0.00 41 1013.1
20260503172030 58 291 2.6 9.6 0.00 0.00 0.00 44 1013.0
20260503171526 57 308 1.7 5.2 0.00 0.00 0.00 42 1013.2
20260503171024 58 315 6.1 7.8 0.00 0.00 0.00 43 1013.2
20260503170520 57 316 4.3 6.1 0.00 0.00 0.00 40 1013.3
20260503150913 52 357 4.3 8.7 0.00 0.00 0.00 43 1013.7
20260503150409 52 304 6.1 7.8 0.00 0.00 0.00 47 1014.0
20260503131303 48 302 4.3 11.3 0.00 0.00 0.00 59 1014.0
20260503130800 48 3 3.5 7.8 0.00 0.00 0.00 57 1013.8
20260503130257 48 329 5.2 9.6 0.00 0.00 0.00 57 1013.9